Home   Weather   San Andrés   Past weeks

Flag for Colombia Past Weather in San Andrés, Colombia — Yesterday and Last 2 Weeks

Now
81 °F

Overcast.


Feels Like: 86 °F
Forecast: 81 / 85 °F
Wind: 12 mph from Northeast

Location: San Andres Isla / Sesquicentenario

Current Time: Dec 8, 2016 at 5:13:17 am

Latest Report: Dec 8, 2016 at 4:00 am


Visibility: N/A

Pressure: 29.84 "Hg

Humidity: 84%

Dew Point: 75 °F

Location of San AndrésLocation

Past Weather in San Andrés — Graph

°F

San Andrés Temperature Yesterday

Maximum temperature yesterday: 86 °F (at 11:00 am)
Minimum temperature yesterday: 79 °F (at 9:00 am)
Average temperature yesterday: 82 °F

High & Low Weather Summary for the Past Weeks

 TemperatureHumidityPressure
High86 °F (Nov 25, 1:00 pm)100% (Nov 24, 4:00 am)29.94 "Hg (Nov 24, 4:00 am)
Low75 °F (Dec 3, 7:00 am)70% (Nov 28, 2:00 pm)29.70 "Hg (Nov 23, 4:00 am)
Average82 °F84%29.84 "Hg
* Reported Nov 23 4:00 am — Dec 8 4:00 am, San Andrés, Weather by CustomWeather, © 2016

Note: Actual official high and low records may vary slightly from our data, if they occured in-between our weather recording intervals... More about our weather records

Advertising

San Andrés Weather History for the Previous 24 Hours

Scroll right to see more
 ConditionsComfort  
Time TempWeatherWind HumidityBarometerVisibility
4:00 am
Thu, Dec 8
81 °FOvercast.12 mph84%29.84 "HgN/A
3:00 am82 °FPassing clouds.14 mph79%29.87 "HgN/A
1:00 am82 °FPassing clouds.13 mph79%29.89 "HgN/A
12:00 am82 °FPassing clouds.14 mph84%29.90 "HgN/A
11:00 pm
Wed, Dec 7
82 °FPassing clouds.13 mph84%29.91 "HgN/A
10:00 pm82 °FPassing clouds.14 mph84%29.92 "HgN/A
9:00 pm82 °FPassing clouds.14 mph84%29.91 "HgN/A
8:00 pm82 °FPassing clouds.14 mph84%29.90 "HgN/A
7:00 pm82 °FPassing clouds.13 mph84%29.87 "HgN/A
6:00 pm82 °FScattered clouds.12 mph84%29.86 "HgN/A
5:00 pm84 °FScattered clouds.14 mph79%29.85 "HgN/A
4:00 pm86 °FPassing clouds.13 mph75%29.84 "HgN/A
3:00 pm84 °FScattered clouds.9 mph79%29.79 "HgN/A
2:00 pm86 °FPassing clouds.16 mph75%29.87 "HgN/A
1:00 pm86 °FScattered clouds.14 mph75%29.89 "HgN/A
12:00 pm82 °FPassing clouds.9 mph79%29.92 "HgN/A
11:00 am86 °FPassing clouds.12 mph70%29.93 "HgN/A
10:00 am84 °FScattered clouds.10 mph70%29.93 "HgN/A
9:00 am79 °FPartly sunny.6 mph84%29.93 "HgN/A
8:00 am81 °FScattered clouds.7 mph74%29.91 "HgN/A
7:00 am81 °FScattered clouds.9 mph79%29.89 "HgN/A
6:00 am81 °FPassing clouds.9 mph84%29.88 "HgN/A
5:51 am81 °FPassing clouds.9 mph84%29.88 "HgN/A
5:00 am81 °FPassing clouds.9 mph84%29.87 "HgN/A
Weather by CustomWeather, © 2016

See weather overviewHow to use our weather pages